ギブス彗星

P/2017 W3 ( Gibbs )

English version
Home page
Updated on July 22, 2020

---------------------------------------------------------------------

・ プロフィール

発見日 2017年11月27日
発見光度 19.2等
発見者 Alex R. Gibbs (Catalina Sky Survey)

・ 写真集

・ 軌道要素

Epoch 2018 Feb. 11.0 TT = JDT 2458160.5
T 2018 Feb. 25.04641 TT                                 MPCW
q   3.8372631            (2000.0)            P               Q
n   0.04581824     Peri.  326.45682     -0.98449914     -0.07026286
a   7.7347049      Node   210.75352     +0.09165499     -0.98729044
e   0.5038902      Incl.   18.31670     -0.14953533     -0.14255072
P  21.51
From 131 observations 2017 Nov. 27-2018 June 13, mean residual 0".6.

・ 光度変化

        m1 = 10.0 + 5 logΔ + 10.0 log r

---------------------------------------------------------------------

軌道要素はM.P.E.C. 2018-S50に掲載されたものです。
光度グラフはComet for Windowsで作成したものです。

---------------------------------------------------------------------

Copyright(C) Seiichi Yoshida (comet@aerith.net). All rights reserved.